Date String (YYYY-MM-DD hh:mm:ss) UTC,Instrument flags,Ambient pressure (hPa),Sample flow (lpm),Bypass flow (lpm),Sample temperature (°C),Ambient temperature (°C),ASC tube jacket temperature (°C),LED temperature (°C),Box temperature (°C),Sample RH (%),Span deviation,Mass concentration (μg/m³),Mass concentration (μg/m³),Mass concentration (μg/m³)
DateTimeUTC,F1_M11,P_M11,Q1_M11,Q2_M11,T1_M11,T2_M11,T3_M11,T4_M11,T5_M11,U1_M11,ZSPAN_M11,X2_M11,X0_M11,X1_M11
2022-05-08 22:00:00,,0808.5,5.00,0.00,30.0,29.3,00.0,38.9,31.8,15.3,0000.0,0009.82,0028.84,0004.10
2022-05-08 22:01:00,,0808.5,5.00,0.00,30.0,29.3,00.0,38.9,31.9,15.8,0000.4,0009.74,0029.75,0004.09
2022-05-08 22:02:00,,0808.5,5.00,0.00,30.0,28.5,00.0,38.9,31.6,16.1,0002.3,0009.76,0030.23,0004.10
2022-05-08 22:03:00,,0808.4,5.01,0.00,29.9,26.3,00.0,38.9,31.1,15.7,0002.0,0009.69,0030.82,0004.10
2022-05-08 22:04:00,,0808.4,5.01,0.00,29.8,25.8,00.0,38.8,31.1,16.0,0001.1,0009.57,0030.37,0004.11
2022-05-08 22:05:00,,0808.5,5.00,0.00,29.7,26.2,00.0,38.8,31.1,15.9,0002.3,0009.55,0030.81,0004.11
2022-05-08 22:06:00,,0808.4,5.00,0.00,29.7,26.7,00.0,38.7,31.2,15.7,0001.1,0009.58,0031.06,0004.11
2022-05-08 22:07:00,,0808.4,5.00,0.00,29.6,27.1,00.0,38.7,31.2,15.7,0000.9,0009.58,0031.06,0004.11
2022-05-08 22:08:00,,0808.4,5.00,0.00,29.6,27.5,00.0,38.7,31.3,15.2,0000.1,0009.58,0030.82,0004.11
2022-05-08 22:09:00,,0808.4,5.01,0.00,29.6,27.7,00.0,38.7,31.3,15.3,-000.3,0009.55,0031.47,0004.08
2022-05-08 22:10:00,,0808.4,5.00,0.00,29.6,28.0,00.0,38.7,31.3,15.2,-000.3,0009.51,0032.25,0004.06
2022-05-08 22:11:00,,0808.3,4.99,0.00,29.6,28.1,00.0,38.6,31.3,15.1,-000.3,0009.68,0032.77,0004.05
2022-05-08 22:12:00,,0808.3,4.99,0.00,29.6,28.3,00.0,38.6,31.4,15.9,-000.5,0009.76,0032.50,0004.06
2022-05-08 22:13:00,,0808.3,5.02,0.00,29.6,28.4,00.0,38.6,31.4,15.7,0000.0,0009.76,0032.43,0004.05
2022-05-08 22:14:00,,0808.3,4.99,0.00,29.7,28.5,00.0,38.6,31.4,15.0,0000.0,0009.83,0032.41,0004.04
2022-05-08 22:15:00,,0808.3,5.00,0.00,29.7,28.6,00.0,38.6,31.4,15.2,0000.0,0009.91,0032.16,0004.03
2022-05-08 22:16:00,,0808.3,5.00,0.00,29.7,28.6,00.0,38.6,31.4,15.3,0000.0,0010.02,0031.91,0004.05
2022-05-08 22:17:00,,0808.3,5.00,0.00,29.7,28.7,00.0,38.6,31.5,15.3,0000.0,0010.11,0032.51,0004.05
2022-05-08 22:18:00,,0808.3,5.01,0.00,29.7,28.8,00.0,38.7,31.5,15.2,0000.0,0009.99,0032.05,0004.04
2022-05-08 22:19:00,,0808.3,5.00,0.00,29.7,28.8,00.0,38.7,31.5,15.5,0000.0,0010.05,0032.40,0004.04
2022-05-08 22:20:00,,0808.3,5.00,0.00,29.8,28.9,00.0,38.7,31.6,15.7,0000.0,0010.13,0031.96,0004.04
2022-05-08 22:21:00,,0808.2,4.99,0.00,29.8,28.9,00.0,38.7,31.6,15.6,0000.0,0010.19,0030.91,0004.05
2022-05-08 22:22:00,,0808.2,5.00,0.00,29.8,29.0,00.0,38.7,31.6,16.1,0000.0,0010.16,0030.07,0004.05
2022-05-08 22:23:00,,0808.1,5.00,0.00,29.8,29.0,00.0,38.7,31.6,15.7,0000.0,0010.12,0030.91,0004.06
2022-05-08 22:24:00,,0808.1,5.00,0.00,29.8,29.0,00.0,38.7,31.6,15.7,0000.0,0010.11,0031.27,0004.07
2022-05-08 22:25:00,,0808.2,5.00,0.00,29.8,29.0,00.0,38.7,31.6,16.1,0000.0,0010.07,0031.39,0004.07
2022-05-08 22:26:00,,0808.1,5.00,0.00,29.9,29.1,00.0,38.7,31.6,15.9,0000.0,0010.02,0030.80,0004.08
2022-05-08 22:27:00,,0808.0,5.01,0.00,29.9,29.1,00.0,38.7,31.7,15.9,0000.0,0009.87,0030.37,0004.06
2022-05-08 22:28:00,,0808.0,5.00,0.00,29.9,29.1,00.0,38.8,31.7,16.7,0000.0,0009.84,0029.33,0004.06
2022-05-08 22:29:00,,0807.9,4.99,0.00,29.9,29.2,00.0,38.8,31.7,16.1,0002.4,0009.92,0028.98,0004.07
2022-05-08 22:30:00,,0807.9,5.00,0.00,29.9,29.2,00.0,38.8,31.7,16.2,0003.0,0009.83,0028.64,0004.08
2022-05-08 22:31:00,,0807.9,5.00,0.00,29.9,29.2,00.0,38.8,31.8,15.9,0001.8,0009.75,0028.58,0004.08
2022-05-08 22:32:00,,0807.9,5.00,0.00,30.0,28.9,00.0,38.8,31.7,16.6,0001.5,0009.72,0028.56,0004.09
2022-05-08 22:33:00,,0807.9,5.01,0.00,29.9,26.8,00.0,38.8,31.2,15.8,0001.2,0009.60,0028.27,0004.10
2022-05-08 22:34:00,,0807.9,5.00,0.00,29.7,25.5,00.0,38.7,31.0,16.0,0000.0,0009.57,0027.08,0004.09
2022-05-08 22:35:00,,0807.9,5.01,0.00,29.7,25.8,00.0,38.7,31.0,16.2,-000.4,0009.54,0026.20,0004.08
2022-05-08 22:36:00,,0807.9,5.00,0.00,29.6,26.3,00.0,38.7,31.1,15.9,0000.0,0009.46,0025.09,0004.09
2022-05-08 22:37:00,,0807.8,5.00,0.00,29.6,26.7,00.0,38.6,31.2,16.4,0000.0,0009.46,0025.71,0004.09
2022-05-08 22:38:00,,0807.8,5.01,0.00,29.6,27.2,00.0,38.6,31.2,16.1,-000.1,0009.53,0026.83,0004.09
2022-05-08 22:39:00,,0807.8,4.99,0.00,29.6,27.5,00.0,38.6,31.3,16.2,0000.0,0009.42,0026.29,0004.09
2022-05-08 22:40:00,,0807.9,5.00,0.00,29.6,27.8,00.0,38.6,31.3,16.2,0000.0,0009.46,0027.17,0004.11
2022-05-08 22:41:00,,0807.8,5.00,0.00,29.6,28.0,00.0,38.6,31.4,15.6,0000.0,0009.59,0028.29,0004.10
2022-05-08 22:42:00,,0807.7,5.00,0.00,29.6,28.2,00.0,38.6,31.4,16.1,0000.0,0009.60,0028.37,0004.10
2022-05-08 22:43:00,,0807.8,5.00,0.00,29.6,28.3,00.0,38.6,31.4,16.0,0000.0,0009.59,0029.11,0004.11
2022-05-08 22:44:00,,0807.7,5.00,0.00,29.7,28.5,00.0,38.6,31.4,16.2,0000.0,0009.59,0029.17,0004.10
2022-05-08 22:45:00,,0807.7,5.01,0.00,29.7,28.6,00.0,38.6,31.5,16.0,0000.0,0009.59,0029.24,0004.11
2022-05-08 22:46:00,,0807.6,5.00,0.00,29.7,28.7,00.0,38.6,31.5,16.3,0000.0,0009.54,0028.81,0004.12
2022-05-08 22:47:00,,0807.6,4.99,0.00,29.8,28.8,00.0,38.6,31.5,16.0,0000.0,0009.63,0029.02,0004.11
2022-05-08 22:48:00,,0807.6,5.00,0.00,29.8,28.8,00.0,38.6,31.6,15.7,0000.0,0009.71,0028.95,0004.11
2022-05-08 22:49:00,,0807.6,4.99,0.00,29.8,28.9,00.0,38.6,31.6,15.5,0000.0,0009.77,0029.39,0004.11
2022-05-08 22:50:00,,0807.6,4.99,0.00,29.8,29.0,00.0,38.7,31.7,15.6,0000.0,0009.84,0030.21,0004.11
2022-05-08 22:51:00,,0807.6,5.00,0.00,29.9,29.0,00.0,38.7,31.7,15.9,0000.0,0009.74,0030.40,0004.10
2022-05-08 22:52:00,,0807.6,5.00,0.00,29.9,29.1,00.0,38.7,31.7,16.0,0000.0,0009.64,0030.69,0004.09
2022-05-08 22:53:00,,0807.6,5.01,0.00,29.9,29.1,00.0,38.7,31.7,16.0,0000.0,0009.55,0030.17,0004.09
2022-05-08 22:54:00,,0807.5,5.01,0.00,29.9,29.2,00.0,38.7,31.8,16.0,0000.0,0009.45,0028.84,0004.07
2022-05-08 22:55:00,,0807.5,4.99,0.00,30.0,29.2,00.0,38.8,31.8,16.3,0000.0,0009.52,0029.21,0004.08
2022-05-08 22:56:00,,0807.5,5.00,0.00,30.0,29.2,00.0,38.8,31.8,16.6,0000.0,0009.51,0028.97,0004.07
2022-05-08 22:57:00,,0807.5,4.99,0.00,30.0,28.0,00.0,38.8,31.5,15.8,0000.0,0009.59,0029.36,0004.08
2022-05-08 22:58:00,,0807.5,5.00,0.00,29.8,25.7,00.0,38.8,31.0,16.0,0000.0,0009.62,0029.48,0004.08
2022-05-08 22:59:00,,0807.4,5.00,0.00,29.7,25.4,00.0,38.7,30.9,15.8,0000.0,0009.63,0029.51,0004.10
